Location: Unspecified
(0.0000°N, 0.0000°E)
Time: 22:45:21
(UTC+00:00)

BlueWalker 3 - Visible Passes

Search period start: 25 September 2023 00:00
Search period end: 05 October 2023 00:00
Orbit: 491 x 508 km, 53.2° (Epoch: 25 September)

Date Brightness Start Highest point End Pass type
(mag) Time Alt. Az. Time Alt. Az. Time Alt. Az.
01 Oct 5.1 20:03:32 10° WSW 20:03:53 12° WSW 20:03:53 12° WSW visible
02 Oct 3.8 19:41:54 10° WSW 19:44:21 28° W 19:44:21 28° W visible
03 Oct 3.4 19:20:16 10° WSW 19:23:44 33° WNW 19:24:54 27° NNW visible
04 Oct 3.5 18:58:37 10° WSW 19:02:05 33° WNW 19:05:27 10° N visible
